Content
SEND FEEDBACK

Daily
Averages
Monthly
Summary
Turkmenistan

ASHGABAT, TURKMENISTAN


Home > Asia > Turkmenistan
Elevation: 775 feet     Latitude: 37 58N     Longitude: 058 20E

WEATHER
 
SELECT A DAY
Number of Records: 182,238;   Date Range: 3/15/97 - 11/19/14
 
SHARE

PRINT THIS DATA

[ ← Previous Day ]
WEATHER ALMANAC - MARCH 4, 2014
[ Next Day → ]
[ °C ]   °F
Weather ElementAverageHighLow
Temperature55.1 °F71.6 °F (4:00 pm)44.6 °F (3:00 am)
Dewpoint34.5 °F37.4 °F (5:00 am)32 °F (3:00 pm)
Humidity47.7 %76 % (5:00 am)13 % (5:00 pm)
Barometer29.96 in30.03 in (11:00 am)29.92 in (3:00 pm)
Wind Speed8.5 mph17.9 mph (5:00 pm)
Weather ElementAverage
Visibility6.1 mi
Wind DirectionESE (101.1 °)

Weather ElementTotal
Precipitation---
Heating Degree Days6.9 (Base 65)
Growing Degree Days8.1 (Base 50)
Averaged from 36 records on March 4, 2014
WEATHER CONDITIONS BREAKOUT
WIND DIRECTION BREAKOUT
WEATHER BY HOUR - MARCH 4, 2014
[ °C ]   °F
Local TimeTemperatureDewpointHumidityBarometerVisibilityWind DirectionWind SpeedGust SpeedPrecipitationEventsConditions
1:00 AM48.2 °F33.8 °F58 %29.98 in6.2 miSE (140°)4.5 mphOvercast
2:00 AM46.0 °F36.0 °F60 %30.01 in6.0 miCalmOvercast
2:00 AM46.4 °F33.8 °F62 %29.98 in6.2 miVariable2.2 mphOvercast
3:00 AM44.6 °F33.8 °F66 %29.98 in3.7 miVariable2.2 mphOvercast
4:00 AM46.4 °F35.6 °F66 %29.95 in6.2 miEast (90°)4.5 mphOvercast
4:30 AM46.4 °F35.6 °F66 %29.95 in6.2 miVariable2.2 mphOvercast
5:00 AM46.0 °F35.0 °F56 %30.00 in6.0 miNorth (10°)6.7 mphOvercast
5:00 AM44.6 °F37.4 °F76 %29.95 in6.2 miNorth (360°)6.7 mphOvercast
5:30 AM44.6 °F37.4 °F76 %29.95 in6.2 miVariable2.2 mphOvercast
6:00 AM44.6 °F35.6 °F71 %29.95 in6.2 miSE (140°)4.5 mphOvercast
6:30 AM44.6 °F35.6 °F71 %29.95 in6.2 miESE (110°)8.9 mphOvercast
7:00 AM44.6 °F35.6 °F71 %29.95 in6.2 miEast (100°)6.7 mphOvercast
7:30 AM44.6 °F35.6 °F71 %29.95 in6.2 miSE (130°)8.9 mphOvercast
8:00 AM45.0 °F35.0 °F59 %30.01 in6.0 miSSE (150°)4.5 mphOvercast
8:00 AM46.4 °F35.6 °F66 %29.98 in6.2 miSE (140°)4.5 mphOvercast
9:00 AM46.4 °F35.6 °F66 %29.98 in6.2 miEast (80°)6.7 mphOvercast
10:00 AM48.2 °F35.6 °F62 %30.01 in6.2 miEast (90°)6.7 mphMostly Cloudy
11:00 AM53.6 °F35.6 °F51 %30.01 in6.2 miEast (100°)8.9 mphScattered Clouds
11:00 AM53.0 °F36.0 °F40 %30.03 in6.0 miEast (100°)8.9 mphScattered Clouds
12:00 PM59.0 °F35.6 °F42 %29.98 in6.2 miESE (120°)8.9 mphPartly Cloudy
1:00 PM64.4 °F35.6 °F34 %29.98 in6.2 miSE (140°)8.9 mphScattered Clouds
2:00 PM66.0 °F35.0 °F20 %29.96 in6.0 miEast (90°)13.4 mphScattered Clouds
2:00 PM68.0 °F33.8 °F28 %29.95 in6.2 miEast (100°)13.4 mphPartly Cloudy
3:00 PM69.8 °F32.0 °F25 %29.92 in6.2 miEast (90°)13.4 mphPartly Cloudy
4:00 PM71.6 °F32.0 °F23 %29.92 in6.2 miEast (100°)13.4 mphPartly Cloudy
4:30 PM71.6 °F32.0 °F23 %29.92 in6.2 miEast (90°)15.7 mphPartly Cloudy
5:00 PM69.8 °F32.0 °F25 %29.92 in6.2 miEast (100°)15.7 mphScattered Clouds
5:00 PM71.0 °F32.0 °F13 %29.92 in6.0 miEast (90°)17.9 mphScattered Clouds
6:00 PM68.0 °F32.0 °F26 %29.92 in6.2 miEast (100°)13.4 mphScattered Clouds
7:00 PM66.2 °F33.8 °F30 %29.92 in6.2 miEast (100°)11.2 mphMostly Cloudy
8:00 PM62.0 °F34.0 °F24 %29.95 in6.0 miEast (100°)13.4 mphScattered Clouds
8:00 PM62.6 °F33.8 °F34 %29.95 in6.2 miEast (100°)11.2 mphMostly Cloudy
9:00 PM59.0 °F33.8 °F39 %29.95 in6.2 miSE (130°)8.9 mphMostly Cloudy
10:00 PM57.2 °F33.8 °F41 %29.92 in6.2 miSE (130°)8.9 mphMostly Cloudy
11:00 PM56.0 °F34.0 °F31 %29.94 in6.0 miESE (110°)8.9 mphClear
11:00 PM55.4 °F33.8 °F44 %29.92 in6.2 miESE (110°)8.9 mphMostly Cloudy
Hourly data recorded from UTAA, located miles away from Ashgabat, Turkmenistan







STORIES FROM OUR PARTNERS